Temperature
15 16 16 16 16 16 16 15 14 14 14 15 14 14 15 15 14 14 14 14 14 14 14 14 14 14 13 13 13 13 13 13 12 12 12 12 12 12 12 12 12 11 11 11
15 16 16 16 16 16 16 16 15 15 14 15 15 15 14 14 14 14 14 14 14 14 13 13 13 13 13 13 13 12 12 12 12 12 12 12 11 11 11 11 11 11 11 11
13 14 15 15 15 15 15 15 15 14 14 14 13 14 14 14 14 14 14 13 13 13 13 13 13 13 13 12 12 12 12 12 12 11 11 11 11 11 11 11 11 10 10 10
12 14 14 15 15 16 15 15 15 14 14 14 14 14 14 14 14 14 13 13 13 13 13 13 12 12 12 12 12 12 12 11 11 11 11 11 10 10 10 10 10 10 10 10
12 13 13 15 15 16 15 14 14 13 13 14 14 13 13 14 14 14 13 13 13 12 12 12 12 12 11 11 11 11 11 11 10 10 10 10 10 10 10 10 9 9 9 9
11 13 13 14 15 16 15 14 14 13 13 13 13 11 11 13 13 13 13 12 12 12 12 12 11 11 11 11 11 10 10 10 10 10 9 9 9 9 9 9 9 9 9 9
11 12 12 13 15 15 14 13 14 14 13 13 13 12 13 13 13 13 12 12 11 11 11 11 11 10 10 10 10 10 9 9 9 9 9 9 9 9 9 8 9 9 9 8
10 11 12 14 14 13 13 14 14 14 14 14 14 13 13 12 12 12 12 11 11 11 10 10 10 10 10 9 9 9 9 9 8 8 8 8 8 8 8 8 8 8 8 8
11 12 13 14 14 15 15 14 14 14 14 14 13 13 12 12 12 11 11 11 10 10 10 9 9 9 9 9 9 8 8 8 8 8 8 7 7 7 7 7 7 7 7 7
11 11 12 13 14 14 14 14 14 14 13 13 13 12 12 11 11 11 10 10 10 9 9 9 9 8 8 8 8 8 8 7 7 7 7 7 7 7 7 6 6 6 6 6
10 11 12 13 13 13 13 14 13 13 13 13 12 12 11 11 11 10 10 10 9 9 9 8 8 8 8 8 7 7 7 7 7 6 6 6 6 6 6 6 6 6 6 6
10 11 11 12 13 13 13 13 13 12 12 12 12 11 11 11 10 10 9 9 9 9 8 8 8 7 7 7 7 7 7 6 6 6 6 5 5 5 5 5 5 5 5 5
13 13 13 13 12 12 12 12 12 12 12 11 11 11 11 10 10 9 9 9 8 8 8 7 7 7 7 6 6 6 6 6 5 5 5 5 5 5 5 5 5 5 5 4
12 12 12 12 12 12 12 12 11 11 11 11 10 10 10 9 9 9 8 8 8 7 7 7 6 6 6 6 6 6 5 5 5 5 4 4 4 4 4 4 4 4 4 4
12 12 12 12 11 11 11 11 11 10 10 10 9 9 9 9 8 8 7 7 7 7 6 6 6 6 6 5 5 5 5 5 4 4 4 4 4 4 3 3 3 3 3 3
11 11 11 11 11 11 10 10 10 10 9 9 9 8 8 8 8 7 7 6 6 6 6 6 5 5 5 5 5 5 4 4 4 4 3 3 3 3 3 3 3 3 3 3
10 10 10 10 10 10 10 10 9 9 9 8 8 8 8 7 7 6 6 6 6 6 5 5 5 5 5 4 4 4 4 4 3 3 3 3 3 2 2 2 2 2 2 2
10 10 10 10 10 9 9 9 9 9 8 8 8 7 7 7 6 6 5 5 5 5 5 4 4 4 4 4 4 3 3 3 3 3 2 2 2 2 2 2 2 2 2 2
10 10 9 9 9 9 9 8 8 8 8 7 7 7 6 6 6 5 5 5 4 4 4 4 4 4 4 3 3 3 3 3 2 2 2 2 2 2 2 2 2 1 1 1
9 9 9 9 9 9 8 8 8 7 7 7 6 6 6 5 5 5 4 4 4 4 4 4 3 3 3 3 3 3 2 2 2 2 2 2 1 1 1 1 1 1 1 1
9 9 9 8 8 8 8 7 7 7 6 6 6 6 5 5 4 4 4 4 4 3 3 3 3 3 3 3 2 2 2 2 2 2 1 1 1 1 1 1 1 1 1 0
8 8 8 7 7 7 7 7 6 6 6 5 5 5 5 4 4 4 4 3 3 3 3 3 3 3 2 2 2 2 2 2 1 1 1 1 1 1 0 0 0 0 0 0
7 7 7 7 6 6 6 6 6 5 5 5 5 4 4 4 4 3 3 3 3 2 2 2 2 2 2 2 2 1 1 1 1 1 1 1 0 0 -0 -0 -0 -0 -0 -0
7 7 6 6 6 6 5 5 5 5 4 4 4 4 4 3 3 3 3 2 2 2 2 2 2 2 2 1 1 1 1 1 1 0 0 0 0 -0 -0 -0 -1 -1 -1 -1
6 6 6 6 5 5 5 4 4 4 4 4 3 3 3 3 3 2 2 2 2 2 1 1 1 1 1 1 1 1 0 0 0 0 -0 -0 -0 -0 -1 -1 -1 -1 -1 -1
6 5 5 5 5 4 4 4 4 3 3 3 3 3 2 2 2 2 2 1 1 1 1 1 1 1 1 0 0 0 0 -0 -0 -0 -0 -0 -1 -1 -1 -1 -1 -1 -1 -1
5 5 5 4 4 4 4 3 3 3 3 2 2 2 2 2 1 1 1 1 1 1 1 0 0 0 -0 -0 -0 -0 -0 -1 -1 -1 -1 -1 -1 -1 -1 -1 -1 -1 -1 -1
Wind_Speed
5 5 3 3 5 3 4 6 7 7 6 8 7 6 5 4 3 2 2 1 1 1 1 1 1 1 1 1 1 1 1 1 2 2 1 1 1 1 1 1 2 2 2 2
3 4 3 4 6 6 6 5 5 5 7 6 4 3 3 4 4 2 2 2 1 1 0 1 1 1 1 1 1 1 1 1 1 0 1 1 1 1 1 2 2 2 2 2
4 5 4 5 6 6 5 4 5 7 8 4 2 4 5 5 4 4 2 1 1 1 1 1 1 1 1 1 0 1 0 1 1 0 1 1 2 1 2 2 2 3 3 2
2 2 5 7 4 3 3 2 2 2 2 4 5 4 3 4 5 4 3 2 1 1 1 1 1 0 0 1 1 2 2 2 1 1 1 2 1 2 3 2 3 3 3 3
2 3 6 7 5 2 3 2 2 1 1 2 3 4 2 1 2 3 3 2 2 1 1 1 1 1 2 2 1 1 1 2 2 1 2 2 2 3 3 3 3 3 3 3
3 3 5 7 6 3 3 2 3 1 3 3 4 2 3 2 1 2 1 1 1 1 2 2 1 1 2 1 1 1 2 2 2 1 2 3 4 4 3 2 3 3 3 3
5 5 7 6 4 2 2 6 4 3 4 4 4 4 3 2 2 2 2 2 1 2 2 1 1 1 1 1 1 2 2 2 2 2 3 3 3 3 2 2 2 2 3 3
4 4 7 4 2 3 5 3 2 2 2 3 2 2 2 3 2 2 1 1 1 1 1 2 1 1 1 1 3 2 1 2 3 3 3 3 2 3 2 2 2 2 2 3
6 6 4 1 3 3 3 2 2 2 2 3 2 2 2 2 2 1 1 0 0 1 1 2 1 1 0 3 3 2 2 2 3 3 4 4 3 2 2 2 2 2 2 3
2 3 3 2 1 1 1 3 3 3 3 3 2 2 2 2 2 1 1 1 0 1 0 2 2 1 1 2 2 2 2 3 3 3 3 3 3 2 2 2 2 3 3 3
3 4 4 4 3 2 1 1 1 1 3 4 4 3 3 3 3 2 2 1 1 1 1 2 2 2 2 2 2 2 2 3 3 2 2 2 3 3 3 3 4 4 3 3
6 6 5 7 7 4 3 3 3 2 2 2 3 4 3 2 2 2 2 1 1 1 1 1 2 2 3 2 1 1 2 2 2 2 2 2 3 4 5 5 7 6 5 5
7 7 6 6 5 4 4 4 4 3 4 3 2 3 3 2 2 2 1 2 2 2 1 1 2 2 2 2 1 1 2 2 2 2 2 2 3 3 5 6 6 6 6 6
4 2 3 4 4 4 3 3 2 2 2 3 2 2 2 2 1 1 2 2 2 1 1 1 2 2 2 1 1 1 1 2 2 2 2 3 3 4 4 4 5 4 5 5
6 5 6 4 3 2 1 2 3 2 2 2 2 3 2 2 2 2 2 1 1 0 1 1 1 3 2 1 1 2 2 2 2 2 2 3 3 3 3 4 4 4 4 4
4 2 2 2 2 2 2 3 4 3 2 2 2 2 2 2 1 1 1 1 1 2 3 2 2 2 2 1 1 1 2 3 3 2 2 3 3 3 3 4 4 3 3 4
4 3 3 3 3 3 3 4 5 4 3 3 3 2 1 1 0 1 1 2 2 3 3 3 2 2 2 1 1 1 1 2 4 3 3 3 3 3 4 3 3 3 4 4
7 7 6 6 5 4 3 3 4 4 3 3 2 2 2 2 2 3 3 2 1 2 2 2 2 2 2 1 1 1 1 2 2 3 3 3 3 3 3 3 4 4 3 3
4 4 4 4 4 4 4 4 4 3 3 3 3 2 2 2 2 2 2 1 1 3 4 3 3 2 2 3 2 2 2 2 2 3 3 4 4 3 3 3 3 3 3 3
2 2 2 3 3 3 4 4 3 3 3 3 3 2 1 2 2 1 1 2 3 3 3 3 2 2 3 3 3 2 2 2 3 3 3 3 4 4 4 4 3 3 3 3
1 2 2 2 2 2 3 3 3 2 2 2 3 3 2 2 1 1 1 3 4 3 3 3 2 3 3 3 4 2 2 3 3 3 3 4 4 4 4 4 4 4 4 3
1 2 2 2 2 2 1 2 2 2 1 1 1 1 1 1 2 2 2 3 4 4 3 2 2 4 5 4 2 2 3 3 3 3 3 4 4 4 4 4 4 4 4 4
1 2 2 2 3 2 1 1 2 2 2 2 2 2 2 3 2 2 3 3 3 4 3 3 4 6 6 2 2 2 3 3 3 3 4 4 4 4 4 4 4 4 4 4
0 1 2 2 2 2 1 1 1 1 1 1 2 2 2 2 2 2 3 4 4 4 3 4 6 6 5 2 2 2 3 3 3 3 4 3 3 3 4 4 4 4 4 5
2 2 2 2 2 1 2 1 1 1 0 1 1 1 1 1 2 3 3 3 3 4 3 5 6 6 3 2 2 3 3 4 4 4 3 3 3 4 4 4 4 4 4 5
2 2 2 2 2 2 2 1 1 1 1 1 2 2 1 1 1 2 2 2 3 3 3 3 3 4 3 3 3 3 3 4 4 4 4 4 4 4 4 4 5 5 5 5
1 1 1 0 1 2 2 2 2 2 2 2 2 2 2 2 2 2 2 2 2 3 3 3 3 3 3 3 3 3 3 3 3 3 3 3 4 4 5 5 5 5 5 5
Wind_Direction
233 244 238 249 271 259 225 211 208 231 230 246 232 216 211 191 168 155 173 163 159 195 220 201 194 193 183 180 178 151 139 164 228 244 252 282 287 270 266 248 230 223 228 241
287 276 280 286 275 259 247 236 223 233 254 247 221 191 175 175 164 173 198 207 213 207 225 235 217 221 210 218 249 151 138 215 249 287 312 297 284 284 294 298 278 253 246 247
273 294 335 289 259 240 228 224 207 227 238 211 175 185 188 185 181 186 193 193 206 224 233 250 233 190 191 228 200 92 71 324 302 268 295 292 296 315 302 288 285 274 259 256
240 351 248 253 270 225 201 262 273 233 206 184 178 182 181 170 175 186 179 169 203 278 291 292 298 333 95 67 80 67 34 358 340 335 313 302 292 273 273 270 265 265 258 251
153 225 274 288 290 246 189 278 310 152 137 106 113 76 7 258 176 179 179 185 215 244 296 343 356 13 79 63 62 46 357 320 313 321 313 305 291 272 263 255 257 257 252 250
152 194 239 257 282 293 118 271 293 158 156 155 108 107 261 269 156 120 99 85 79 56 52 42 346 64 81 45 49 341 293 289 289 298 290 282 281 281 274 254 262 266 270 264
190 220 257 262 286 58 145 252 265 195 180 173 178 205 217 185 131 128 123 98 93 88 64 352 343 87 92 37 296 280 284 302 302 299 292 286 288 287 283 282 286 286 282 281
174 205 254 273 119 168 223 240 214 193 189 179 176 148 149 159 151 129 101 97 97 79 18 336 358 67 54 289 283 299 317 321 319 317 313 315 305 305 301 288 284 293 297 299
193 214 247 236 188 219 180 185 213 198 193 151 150 164 169 170 159 152 156 171 88 122 5 332 329 83 353 306 314 325 329 319 316 322 325 320 310 303 307 298 277 279 282 285
241 266 278 293 317 328 182 198 210 192 183 169 175 182 172 164 168 175 220 200 187 122 36 320 322 341 314 318 344 3 332 315 311 314 318 324 326 317 301 283 276 278 278 279
258 280 316 308 296 273 253 188 160 189 202 189 173 188 196 199 200 197 198 216 188 178 220 281 311 332 328 342 14 8 343 330 325 319 312 324 327 317 304 282 268 265 263 258
241 239 229 257 263 258 221 219 209 207 225 205 185 193 200 197 203 200 199 201 200 222 229 274 308 322 319 332 17 4 339 328 317 317 319 318 316 320 317 301 300 284 274 271
238 247 241 257 256 242 219 210 203 192 188 195 194 178 168 174 190 192 204 203 205 215 230 276 311 316 313 325 353 351 317 306 306 309 310 308 307 306 311 317 317 309 295 286
249 238 258 258 250 245 227 205 177 151 157 159 161 153 148 151 162 186 222 227 202 185 231 292 313 311 305 315 333 316 302 301 304 291 296 298 299 297 293 297 306 310 304 290
265 247 237 245 242 236 207 150 129 129 128 128 146 150 154 163 188 223 236 220 178 219 281 295 308 309 308 322 325 298 294 292 290 289 292 293 296 298 301 298 296 298 306 307
260 265 226 203 212 219 180 164 165 176 169 163 165 178 186 187 203 226 223 183 193 251 259 256 267 288 302 311 308 306 293 299 307 305 305 305 306 304 302 299 298 297 295 295
214 237 236 233 227 221 211 199 190 185 181 180 193 192 162 134 125 253 256 246 241 251 251 243 254 279 293 299 279 280 295 303 315 313 300 298 299 297 294 293 293 294 289 287
216 217 214 211 212 214 213 195 179 176 180 196 179 153 148 170 212 246 263 268 286 302 281 260 258 283 284 288 268 250 266 286 295 291 292 294 297 295 294 293 291 289 292 300
219 219 217 208 197 188 192 189 186 187 183 167 160 176 204 222 232 253 260 243 264 286 286 273 281 284 271 272 281 260 263 278 292 293 293 295 300 293 290 289 286 281 284 293
229 204 186 189 174 169 177 180 176 176 179 167 162 178 225 249 245 252 234 243 252 256 265 275 275 270 266 271 278 259 261 270 279 285 290 289 286 287 287 287 290 290 290 292
195 171 156 159 162 162 164 161 159 175 192 175 177 201 221 242 247 242 249 282 284 275 274 282 282 272 270 281 279 262 260 268 271 273 279 284 286 288 288 290 291 290 287 286
207 173 169 158 142 145 156 151 155 161 165 175 184 186 200 262 284 292 273 259 273 285 290 278 270 277 285 291 273 264 266 268 270 273 275 279 281 284 285 286 285 288 287 282
213 180 163 158 157 151 120 128 147 154 175 200 205 208 227 252 251 253 283 285 281 290 296 281 289 292 292 290 274 271 276 277 274 272 273 274 274 277 282 285 284 283 283 281
161 143 141 138 121 115 128 250 216 203 212 227 222 224 234 271 290 274 261 283 296 300 294 289 296 302 306 301 272 272 276 279 279 276 275 277 276 277 280 285 285 282 278 278
169 153 138 128 135 185 209 231 296 301 277 280 281 282 268 236 248 269 277 278 292 306 305 304 309 312 311 288 277 277 276 277 280 281 274 275 275 279 283 285 284 282 280 279
185 184 191 197 195 200 188 177 220 256 255 284 296 294 297 297 283 281 282 284 290 306 309 304 305 307 303 288 280 280 283 291 295 293 286 282 280 281 284 285 284 283 280 279
203 189 174 189 237 207 196 195 209 230 229 229 262 279 279 286 291 290 292 294 299 300 297 297 296 295 294 291 286 285 287 286 285 285 289 292 292 290 287 285 285 284 285 284
Height
1531 1528 1527 1527 1525 1524 1527 1529 1534 1530 1527 1522 1519 1518 1517 1518 1518 1518 1518 1518 1518 1517 1517 1516 1516 1516 1516 1516 1515 1515 1514 1514 1513 1513 1512 1511 1510 1510 1510 1509 1509 1508 1508 1507
1531 1526 1525 1526 1523 1522 1522 1522 1523 1523 1522 1515 1515 1516 1516 1516 1516 1517 1517 1516 1516 1515 1515 1515 1514 1514 1514 1513 1513 1513 1512 1511 1511 1510 1509 1508 1507 1507 1506 1506 1505 1505 1504 1504
1538 1530 1527 1530 1521 1519 1518 1516 1518 1521 1517 1513 1514 1515 1514 1514 1515 1515 1515 1515 1514 1514 1513 1513 1513 1512 1512 1511 1511 1510 1510 1509 1508 1507 1506 1505 1504 1503 1503 1502 1502 1501 1500 1500
1538 1534 1539 1526 1513 1513 1514 1514 1512 1511 1511 1510 1511 1512 1513 1513 1513 1513 1514 1513 1513 1512 1512 1511 1511 1510 1510 1509 1509 1508 1507 1506 1505 1504 1503 1502 1500 1499 1499 1498 1498 1497 1496 1496
1540 1540 1534 1521 1513 1511 1513 1515 1511 1511 1510 1510 1510 1512 1513 1513 1513 1513 1513 1512 1512 1511 1511 1510 1509 1508 1508 1507 1506 1505 1504 1503 1502 1501 1500 1498 1497 1495 1494 1494 1493 1493 1492 1492
1538 1539 1538 1523 1511 1508 1511 1517 1511 1510 1510 1510 1510 1515 1514 1511 1511 1511 1511 1511 1511 1510 1509 1508 1507 1506 1505 1504 1503 1502 1501 1500 1499 1498 1496 1495 1493 1492 1491 1490 1490 1489 1489 1488
1535 1536 1528 1515 1509 1509 1521 1520 1510 1509 1508 1508 1508 1510 1510 1509 1509 1509 1509 1509 1509 1508 1507 1506 1505 1504 1503 1502 1501 1500 1499 1497 1496 1495 1493 1492 1490 1489 1487 1487 1486 1485 1485 1484
1533 1535 1529 1510 1509 1513 1514 1509 1508 1508 1507 1507 1507 1507 1508 1508 1508 1508 1507 1507 1507 1506 1505 1504 1503 1502 1500 1499 1498 1497 1496 1494 1493 1492 1490 1489 1487 1485 1484 1483 1482 1481 1480 1479
1521 1520 1512 1508 1508 1508 1508 1507 1507 1507 1507 1506 1506 1506 1506 1506 1506 1506 1506 1506 1505 1504 1503 1502 1501 1500 1498 1497 1495 1494 1493 1491 1490 1489 1487 1486 1484 1482 1481 1480 1479 1477 1476 1475
1515 1511 1509 1508 1507 1506 1506 1506 1505 1505 1505 1504 1504 1504 1504 1505 1505 1504 1504 1504 1503 1501 1500 1499 1498 1497 1496 1494 1493 1491 1490 1488 1487 1485 1484 1482 1481 1479 1478 1477 1475 1474 1472 1471
1513 1510 1508 1506 1506 1506 1505 1504 1503 1503 1503 1502 1502 1502 1502 1502 1502 1502 1501 1501 1500 1499 1497 1496 1495 1494 1493 1492 1490 1488 1487 1485 1484 1482 1481 1479 1478 1476 1475 1473 1472 1471 1469 1468
1510 1506 1506 1504 1503 1503 1502 1501 1501 1500 1500 1500 1500 1500 1500 1499 1499 1499 1499 1498 1497 1496 1495 1494 1492 1491 1491 1489 1487 1485 1483 1482 1481 1479 1477 1476 1474 1472 1471 1470 1468 1467 1466 1465
1502 1501 1501 1500 1500 1500 1499 1498 1498 1498 1497 1497 1497 1497 1497 1496 1496 1496 1496 1495 1494 1493 1492 1491 1490 1488 1487 1486 1484 1482 1481 1479 1477 1476 1474 1472 1470 1468 1466 1465 1463 1462 1461 1460
1499 1498 1497 1496 1496 1496 1496 1495 1495 1495 1495 1495 1494 1494 1494 1494 1493 1493 1493 1492 1491 1490 1489 1488 1487 1485 1484 1482 1481 1479 1478 1476 1475 1473 1471 1469 1467 1465 1463 1460 1458 1457 1456 1455
1495 1494 1494 1493 1492 1492 1492 1492 1491 1492 1492 1492 1492 1492 1491 1491 1490 1490 1489 1489 1488 1487 1486 1485 1483 1482 1481 1479 1478 1476 1475 1473 1471 1469 1468 1466 1464 1461 1459 1457 1455 1453 1451 1451
1491 1491 1490 1490 1489 1489 1489 1489 1488 1488 1489 1489 1489 1489 1488 1488 1487 1487 1486 1486 1485 1484 1483 1482 1480 1479 1478 1476 1475 1473 1471 1470 1468 1466 1464 1462 1460 1458 1456 1453 1451 1449 1447 1446
1487 1487 1486 1486 1486 1486 1486 1486 1486 1485 1486 1486 1486 1486 1485 1485 1484 1484 1483 1483 1482 1481 1480 1479 1477 1476 1475 1473 1472 1470 1468 1466 1465 1463 1461 1459 1457 1454 1452 1450 1448 1446 1444 1443
1483 1483 1483 1483 1483 1483 1482 1483 1483 1483 1483 1483 1483 1483 1482 1482 1481 1481 1480 1479 1479 1478 1476 1475 1474 1473 1471 1470 1468 1467 1465 1463 1461 1460 1457 1455 1453 1451 1449 1447 1444 1443 1441 1440
1479 1479 1479 1479 1480 1480 1479 1480 1480 1481 1481 1481 1480 1480 1480 1479 1479 1478 1477 1476 1475 1474 1473 1472 1471 1469 1468 1466 1465 1463 1461 1459 1458 1456 1454 1452 1450 1447 1445 1443 1441 1440 1438 1437
1476 1475 1475 1476 1476 1477 1477 1477 1478 1478 1478 1478 1477 1477 1477 1476 1476 1475 1474 1473 1473 1471 1470 1469 1467 1466 1464 1462 1461 1459 1458 1456 1454 1452 1450 1448 1446 1444 1442 1440 1438 1436 1435 1433
1473 1473 1473 1473 1473 1474 1474 1474 1475 1475 1475 1475 1475 1474 1474 1473 1473 1472 1471 1470 1469 1468 1467 1465 1464 1462 1460 1458 1457 1455 1454 1452 1451 1449 1447 1445 1443 1441 1438 1436 1435 1433 1431 1430
1471 1471 1471 1471 1471 1471 1472 1472 1472 1472 1472 1472 1472 1471 1471 1470 1470 1469 1468 1467 1466 1465 1463 1461 1460 1458 1456 1455 1453 1452 1450 1448 1447 1445 1443 1441 1439 1437 1435 1433 1431 1430 1428 1426
1470 1470 1469 1469 1469 1469 1469 1469 1469 1469 1469 1469 1469 1468 1468 1467 1467 1466 1464 1464 1462 1461 1459 1457 1456 1454 1453 1451 1450 1448 1446 1445 1443 1441 1439 1437 1436 1434 1431 1429 1428 1426 1424 1423
1468 1468 1468 1467 1467 1467 1467 1467 1467 1467 1467 1466 1466 1466 1465 1464 1463 1462 1461 1460 1458 1457 1455 1453 1452 1450 1449 1447 1446 1444 1443 1441 1439 1437 1436 1434 1432 1430 1428 1426 1424 1422 1421 1419
1466 1466 1465 1465 1465 1464 1464 1464 1464 1464 1464 1463 1463 1462 1462 1461 1460 1459 1457 1456 1454 1453 1451 1449 1448 1447 1445 1443 1442 1440 1438 1437 1435 1434 1432 1430 1428 1426 1424 1422 1420 1418 1416 1415
1464 1463 1463 1463 1462 1462 1462 1462 1461 1461 1460 1460 1459 1459 1458 1457 1456 1455 1454 1452 1451 1449 1448 1446 1444 1442 1441 1439 1438 1436 1434 1433 1431 1429 1428 1426 1424 1422 1420 1418 1416 1414 1413 1411
1461 1460 1460 1460 1460 1460 1460 1459 1459 1458 1457 1457 1456 1455 1454 1453 1452 1451 1450 1449 1447 1445 1444 1442 1440 1438 1437 1435 1434 1432 1430 1429 1427 1426 1424 1422 1420 1418 1416 1414 1412 1410 1409 1407